Location: Newark
(21.1200°N, 73.4000°E)
Time: 18:40:05
(UTC+00:00)

Explorer 11/Cluster Stage 4 - Pass Details

Date: 27 January 2020
Orbit: 467 x 1259 km, 28.8° (Epoch: 26 February)

Event Time Altitude Azimuth Distance (km) Brightness Sun altitude
Rises 13:31:48 0° 289° (WNW) 3,987 11.2 -9.4°
Reaches altitude 10° 13:34:51 10° 288° (WNW) 2,925 10.4 -10.1°
Maximum altitude 13:41:58 72° 205° (SSW) 972 7.1 -11.7°
Drops below altitude 10° 13:47:38 10° 121° (ESE) 2,350 8.6 -13.0°
Enters shadow 13:48:15 - 121° (ESE) 2,568 8.8 -13.1°
Sets 13:49:52 0° 119° (ESE) 3,160 - -13.5°
